Location: Anuling
(14.1239°N, 120.8922°E)
Time: 04:03:23
(UTC+00:00)

Cosmos 2366 rocket - Pass Details

Date: 14 January 2026
Orbit: 955 x 995 km, 82.9° (Epoch: 10 February)

Event Time Altitude Azimuth Distance (km) Brightness Sun altitude
Rises 10:00:14 0° 0° (N) 3,703 6.8 -3.9°
Reaches altitude 10° 10:02:47 10° 3° (N) 2,755 6.1 -4.5°
Maximum altitude 10:09:05 69° 86° (E) 1,055 4.0 -5.9°
Drops below altitude 10° 10:15:21 10° 169° (S) 2,746 6.5 -7.3°
Sets 10:17:53 0° 171° (S) 3,690 7.2 -7.9°
